User: anonymous   Login
Location: Earls Croome
(52.0667°N, 2.2000°W)
Time: 08:19:56
(UTC+00:00)
Language:

COSMOS 2455 - Orbit

View from above orbital plane
View from above orbital plane
View from above satellite
View from above satellite

Ground track
Ground track

The orbit data is extracted from the following two-line orbital elements,

1 36095U 09063A   21027.17654575 -.00000089  00000-0 -96432-5 0  9991
2 36095  67.1497 355.3037 0006189 243.8303 116.2145 13.96774574570591
Epoch (UTC): 27 January 2021 04:14:13
Eccentricity: 0.0006189
inclination: 67.1497°
perigee height: 900 km
apogee height: 909 km
right ascension of ascending node: 355.3037°
argument of perigee: 243.8303°
revolutions per day: 13.96774574
mean anomaly at epoch: 116.2145°
orbit number at epoch: 57059

The dashed part of the orbit path shows where the satellite is in the earth's shadow,  

DLR